• In Romania
  • List of Countries
  • For 7 days
  • Water Temperature
  • Satellite Maps
  • Weather Map
  • Weather Widgets
  • user-avatar
    Login

    Hourly Weather Grecheskoe

    Today, 25 September, Tuesday

    Time Temperature Precipitation Wind Pressure Humidity
    00:00 +18°C° 0 mm 3 mps 729 mmHg 75%
    01:00 +18°C° 0 mm 3 mps 728 mmHg 75%
    02:00 +17°C° 0 mm 3 mps 728 mmHg 76%
    03:00 +17°C° 0 mm 2 mps 728 mmHg 76%
    04:00 +17°C° 0 mm 2 mps 728 mmHg 76%
    05:00 +16°C° 0 mm 2 mps 728 mmHg 76%
    06:00 +16°C° 0 mm 2 mps 728 mmHg 77%
    07:00 +18°C° 0 mm 2 mps 727 mmHg 70%
    08:00 +20°C° 0 mm 2 mps 727 mmHg 64%
    09:00 +23°C° 0 mm 2 mps 727 mmHg 58%
    10:00 +25°C° 0 mm 2 mps 727 mmHg 53%
    11:00 +27°C° 0 mm 2 mps 727 mmHg 48%
    12:00 +29°C° 0 mm 2 mps 727 mmHg 43%
    13:00 +29°C° 0 mm 2 mps 727 mmHg 41%
    14:00 +30°C° 0 mm 2 mps 727 mmHg 40%
    15:00 +30°C° 0 mm 2 mps 727 mmHg 38%
    16:00 +28°C° 0 mm 3 mps 727 mmHg 44%
    17:00 +27°C° 0 mm 3 mps 728 mmHg 50%
    18:00 +25°C° 0 mm 3 mps 728 mmHg 56%
    19:00 +22°C° 0.2 mm 4 mps 729 mmHg 62%
    20:00 +20°C° 0.2 mm 5 mps 729 mmHg 68%
    21:00 +17°C° 0.2 mm 6 mps 730 mmHg 74%
    22:00 +16°C° 0.1 mm 6 mps 730 mmHg 74%
    23:00 +15°C° 0.1 mm 5 mps 731 mmHg 75%

    Tomorrow, 26 September, Wednesday

    Time Temperature Precipitation Wind Pressure Humidity
    00:00 +15°C° 0.1 mm 5 mps 731 mmHg 75%
    01:00 +14°C° 0.1 mm 5 mps 731 mmHg 75%
    02:00 +13°C° 0.1 mm 5 mps 732 mmHg 75%
    03:00 +13°C° 0.1 mm 5 mps 732 mmHg 75%
    04:00 +12°C° 0.1 mm 5 mps 732 mmHg 74%
    05:00 +12°C° 0.1 mm 4 mps 733 mmHg 73%
    06:00 +12°C° 0.1 mm 4 mps 733 mmHg 72%
    07:00 +12°C° 0.1 mm 4 mps 734 mmHg 73%
    08:00 +11°C° 0.1 mm 4 mps 734 mmHg 73%
    09:00 +11°C° 0.1 mm 4 mps 735 mmHg 74%
    10:00 +11°C° 0.1 mm 3 mps 735 mmHg 73%
    11:00 +12°C° 0.1 mm 3 mps 735 mmHg 72%
    12:00 +13°C° 0.1 mm 2 mps 735 mmHg 71%
    13:00 +13°C° 0 mm 2 mps 735 mmHg 67%
    14:00 +14°C° 0 mm 2 mps 735 mmHg 63%
    15:00 +15°C° 0 mm 2 mps 735 mmHg 59%
    16:00 +15°C° 0 mm 1 mps 735 mmHg 59%
    17:00 +14°C° 0 mm 1 mps 735 mmHg 60%
    18:00 +14°C° 0 mm 1 mps 735 mmHg 60%
    19:00 +14°C° 0 mm 1 mps 736 mmHg 62%
    20:00 +13°C° 0 mm 1 mps 736 mmHg 63%
    21:00 +13°C° 0 mm 1 mps 736 mmHg 65%
    22:00 +13°C° 0.1 mm 1 mps 736 mmHg 66%
    23:00 +12°C° 0.1 mm 1 mps 736 mmHg 68%

    Day after tomorrow, 27 September, Thursday

    Time Temperature Precipitation Wind Pressure Humidity
    00:00 +12°C° 0.1 mm 1 mps 736 mmHg 70%
    01:00 +12°C° 0.1 mm 1 mps 736 mmHg 71%
    02:00 +12°C° 0.1 mm 2 mps 736 mmHg 72%
    03:00 +10°C° 0.1 mm 2 mps 736 mmHg 73%
    04:00 +11°C° 0 mm 1 mps 736 mmHg 74%
    05:00 +11°C° 0 mm 1 mps 736 mmHg 75%
    06:00 +10°C° 0 mm 1 mps 736 mmHg 77%
    07:00 +11°C° 0.3 mm 1 mps 736 mmHg 75%
    08:00 +12°C° 0.3 mm 2 mps 737 mmHg 73%
    09:00 +12°C° 0.3 mm 2 mps 737 mmHg 71%
    10:00 +13°C° 0 mm 2 mps 737 mmHg 66%
    11:00 +15°C° 0 mm 2 mps 736 mmHg 61%
    12:00 +16°C° 0 mm 3 mps 736 mmHg 56%
    13:00 +17°C° 0 mm 3 mps 736 mmHg 54%
    14:00 +18°C° 0 mm 2 mps 736 mmHg 52%
    15:00 +18°C° 0 mm 2 mps 736 mmHg 50%
    16:00 +17°C° 0 mm 2 mps 735 mmHg 54%
    17:00 +16°C° 0 mm 2 mps 735 mmHg 57%
    18:00 +15°C° 0 mm 2 mps 735 mmHg 61%
    19:00 +15°C° 0 mm 2 mps 735 mmHg 64%
    20:00 +14°C° 0 mm 2 mps 735 mmHg 67%
    21:00 +13°C° 0 mm 2 mps 736 mmHg 69%
    22:00 +13°C° 0 mm 1 mps 736 mmHg 71%
    23:00 +13°C° 0 mm 1 mps 735 mmHg 72%

    28 September, Friday

    Time Temperature Precipitation Wind Pressure Humidity
    00:00 +13°C° 0 mm 1 mps 735 mmHg 74%
    01:00 +12°C° 0 mm 1 mps 735 mmHg 75%
    02:00 +12°C° 0 mm 1 mps 735 mmHg 76%
    03:00 +12°C° 0 mm 1 mps 735 mmHg 76%
    04:00 +12°C° 0 mm 1 mps 735 mmHg 77%
    05:00 +11°C° 0 mm 1 mps 735 mmHg 78%
    06:00 +11°C° 0 mm 1 mps 735 mmHg 79%
    07:00 +13°C° 0 mm 1 mps 735 mmHg 72%
    08:00 +15°C° 0 mm 1 mps 735 mmHg 66%
    09:00 +18°C° 0 mm 1 mps 735 mmHg 59%
    10:00 +18°C° 0 mm 2 mps 735 mmHg 55%
    11:00 +20°C° 0 mm 2 mps 735 mmHg 50%
    12:00 +21°C° 0 mm 3 mps 735 mmHg 46%
    13:00 +22°C° 0 mm 3 mps 734 mmHg 45%
    14:00 +22°C° 0 mm 3 mps 734 mmHg 44%
    15:00 +23°C° 0 mm 4 mps 733 mmHg 43%
    16:00 +21°C° 0 mm 3 mps 733 mmHg 47%
    17:00 +20°C° 0 mm 3 mps 733 mmHg 51%
    18:00 +18°C° 0 mm 3 mps 733 mmHg 55%
    19:00 +18°C° 0 mm 3 mps 733 mmHg 58%
    20:00 +17°C° 0 mm 3 mps 733 mmHg 61%
    21:00 +16°C° 0 mm 3 mps 732 mmHg 64%
    22:00 +16°C° 0 mm 3 mps 732 mmHg 67%
    23:00 +14°C° 0 mm 3 mps 732 mmHg 69%

    29 September, Saturday

    Time Temperature Precipitation Wind Pressure Humidity
    00:00 +14°C° 0 mm 3 mps 731 mmHg 71%
    01:00 +15°C° 0 mm 2 mps 731 mmHg 75%
    02:00 +14°C° 0 mm 2 mps 731 mmHg 78%
    03:00 +14°C° 0 mm 2 mps 730 mmHg 81%
    04:00 +14°C° 0 mm 2 mps 730 mmHg 83%
    05:00 +13°C° 0 mm 2 mps 730 mmHg 85%
    06:00 +13°C° 0 mm 2 mps 730 mmHg 86%
    07:00 +15°C° 0 mm 2 mps 730 mmHg 82%
    08:00 +16°C° 0 mm 2 mps 730 mmHg 77%
    09:00 +18°C° 0 mm 2 mps 730 mmHg 72%
    10:00 +19°C° 0 mm 3 mps 730 mmHg 68%
    11:00 +21°C° 0 mm 3 mps 729 mmHg 63%
    12:00 +22°C° 0 mm 3 mps 729 mmHg 59%
    13:00 +24°C° 0 mm 3 mps 729 mmHg 56%
    14:00 +24°C° 0 mm 3 mps 728 mmHg 54%
    15:00 +25°C° 0 mm 3 mps 728 mmHg 52%
    16:00 +24°C° 0 mm 3 mps 728 mmHg 57%
    17:00 +21°C° 0 mm 2 mps 728 mmHg 62%
    18:00 +20°C° 0 mm 2 mps 728 mmHg 68%
    19:00 +19°C° 0 mm 2 mps 728 mmHg 70%
    20:00 +19°C° 0 mm 2 mps 728 mmHg 73%
    21:00 +19°C° 0 mm 1 mps 728 mmHg 75%
    22:00 +19°C° 0 mm 1 mps 728 mmHg 77%
    23:00 +18°C° 0 mm 1 mps 728 mmHg 78%

    30 September, Sunday

    Time Temperature Precipitation Wind Pressure Humidity
    00:00 +18°C° 0 mm 1 mps 728 mmHg 79%
    01:00 +18°C° 0 mm 1 mps 728 mmHg 80%
    02:00 +16°C° 0 mm 1 mps 728 mmHg 81%
    03:00 +16°C° 0 mm 1 mps 728 mmHg 82%
    04:00 +16°C° 0 mm 1 mps 728 mmHg 81%
    05:00 +16°C° 0 mm 1 mps 728 mmHg 81%
    06:00 +16°C° 0 mm 1 mps 728 mmHg 81%
    07:00 +18°C° 0 mm 1 mps 729 mmHg 74%
    08:00 +20°C° 0 mm 1 mps 729 mmHg 68%
    09:00 +22°C° 0 mm 1 mps 729 mmHg 61%
    10:00 +23°C° 0 mm 1 mps 729 mmHg 57%
    11:00 +24°C° 0 mm 2 mps 729 mmHg 53%
    12:00 +25°C° 0 mm 2 mps 729 mmHg 50%
    13:00 +26°C° 0 mm 3 mps 729 mmHg 49%
    14:00 +26°C° 0 mm 3 mps 729 mmHg 47%
    15:00 +27°C° 0 mm 3 mps 729 mmHg 46%
    16:00 +25°C° 0 mm 3 mps 729 mmHg 51%
    17:00 +24°C° 0 mm 2 mps 729 mmHg 56%
    18:00 +23°C° 0 mm 2 mps 730 mmHg 61%
    19:00 +21°C° 0 mm 2 mps 730 mmHg 64%
    20:00 +20°C° 0 mm 2 mps 730 mmHg 68%
    21:00 +19°C° 0 mm 2 mps 730 mmHg 71%
    22:00 +19°C° 0 mm 2 mps 729 mmHg 72%
    23:00 +19°C° 0 mm 2 mps 729 mmHg 72%
    Show more